| time (UTC) | temp C | wind direction | speed KPH | gust KPH | rain 1hr cm | rain 24hr cm | rain mn cm | humidity % | barometer mb |
| 20260505195513 | 8 | 326 | 4.8 | 14.5 | 0.00 | 0.00 | 0.00 | 43 | 1007.8 |
| 20260505195012 | 8 | 295 | 4.8 | 11.3 | 0.00 | 0.00 | 0.00 | 44 | 1007.8 |
| 20260505194532 | 8 | 24 | 1.6 | 16.1 | 0.00 | 0.00 | 0.00 | 48 | 1007.8 |
| 20260505194020 | 8 | 271 | 4.8 | 19.3 | 0.00 | 0.00 | 0.00 | 46 | 1007.9 |
| 20260505193511 | 8 | 277 | 9.7 | 19.3 | 0.00 | 0.00 | 0.00 | 46 | 1007.8 |
| 20260505193040 | 8 | 307 | 6.4 | 12.9 | 0.00 | 0.00 | 0.00 | 44 | 1007.9 |
| 20260505192514 | 8 | 315 | 3.2 | 14.5 | 0.00 | 0.00 | 0.00 | 47 | 1007.8 |
| 20260505192015 | 7 | 293 | 3.2 | 14.5 | 0.00 | 0.00 | 0.00 | 46 | 1007.9 |
| 20260505191534 | 7 | 302 | 4.8 | 16.1 | 0.00 | 0.00 | 0.00 | 46 | 1008.0 |
| 20260505191013 | 7 | 284 | 8.0 | 16.1 | 0.00 | 0.00 | 0.00 | 46 | 1008.0 |
| 20260505190517 | 7 | 274 | 6.4 | 14.5 | 0.00 | 0.00 | 0.00 | 47 | 1008.0 |
| 20260505190032 | 7 | 327 | 4.8 | 12.9 | 0.00 | 0.00 | 0.00 | 47 | 1007.9 |
| 20260505185513 | 7 | 340 | 4.8 | 12.9 | 0.00 | 0.00 | 0.00 | 45 | 1007.9 |
| 20260505185017 | 7 | 9 | 4.8 | 12.9 | 0.00 | 0.00 | 0.00 | 45 | 1007.8 |
| 20260505184532 | 7 | 289 | 4.8 | 8.0 | 0.00 | 0.00 | 0.00 | 45 | 1007.8 |
| 20260505184013 | 7 | 352 | 3.2 | 12.9 | 0.00 | 0.00 | 0.00 | 46 | 1007.8 |
| 20260505183512 | 7 | 355 | 4.8 | 12.9 | 0.00 | 0.00 | 0.00 | 45 | 1007.9 |
| 20260505183043 | 7 | 289 | 4.8 | 16.1 | 0.00 | 0.00 | 0.00 | 45 | 1007.9 |
| 20260505182513 | 7 | 345 | 8.0 | 16.1 | 0.00 | 0.00 | 0.00 | 45 | 1008.0 |
| 20260505182015 | 7 | 315 | 8.0 | 14.5 | 0.00 | 0.00 | 0.00 | 47 | 1007.9 |
| 20260505181532 | 7 | 350 | 3.2 | 12.9 | 0.00 | 0.00 | 0.00 | 45 | 1007.9 |
| 20260505181018 | 7 | 341 | 4.8 | 12.9 | 0.00 | 0.00 | 0.00 | 45 | 1007.7 |
| 20260505180514 | 7 | 347 | 1.6 | 11.3 | 0.00 | 0.00 | 0.00 | 46 | 1007.9 |
| 20260505180033 | 7 | 295 | 4.8 | 11.3 | 0.00 | 0.00 | 0.00 | 45 | 1007.7 |
| 20260505175514 | 7 | 296 | 3.2 | 17.7 | 0.00 | 0.00 | 0.00 | 46 | 1007.9 |
| 20260505175011 | 7 | 265 | 8.0 | 17.7 | 0.00 | 0.00 | 0.00 | 46 | 1007.7 |
| 20260505174533 | 7 | 274 | 6.4 | 16.1 | 0.00 | 0.00 | 0.00 | 48 | 1007.8 |
| 20260505174014 | 7 | 343 | 1.6 | 14.5 | 0.00 | 0.00 | 0.00 | 47 | 1007.7 |
| 20260505173514 | 7 | 331 | 4.8 | 14.5 | 0.00 | 0.00 | 0.00 | 46 | 1007.9 |
| 20260505173032 | 7 | 293 | 3.2 | 11.3 | 0.00 | 0.00 | 0.00 | 46 | 1007.8 |
| 20260505172516 | 7 | 314 | 4.8 | 11.3 | 0.00 | 0.00 | 0.00 | 46 | 1007.7 |
| 20260505172014 | 7 | 246 | 3.2 | 6.4 | 0.00 | 0.00 | 0.00 | 46 | 1007.8 |
| 20260505171533 | 7 | 297 | 1.6 | 12.9 | 0.00 | 0.00 | 0.00 | 46 | 1007.5 |
| 20260505171018 | 7 | 269 | 4.8 | 12.9 | 0.00 | 0.00 | 0.00 | 47 | 1007.7 |
| 20260505170514 | 7 | 328 | 4.8 | 11.3 | 0.00 | 0.00 | 0.00 | 46 | 1007.8 |
| 20260505170032 | 7 | 291 | 4.8 | 12.9 | 0.00 | 0.00 | 0.00 | 46 | 1007.8 |
| 20260505165515 | 7 | 284 | 4.8 | 16.1 | 0.00 | 0.00 | 0.00 | 45 | 1007.8 |
| 20260505165014 | 7 | 298 | 8.0 | 16.1 | 0.00 | 0.00 | 0.00 | 45 | 1007.6 |
| 20260505164551 | 7 | 292 | 1.6 | 12.9 | 0.00 | 0.00 | 0.00 | 46 | 1007.4 |
| 20260505164016 | 7 | 323 | 4.8 | 12.9 | 0.00 | 0.00 | 0.00 | 46 | 1007.5 |
| 20260505163516 | 7 | 298 | 3.2 | 12.9 | 0.00 | 0.00 | 0.00 | 44 | 1007.5 |
| 20260505163036 | 7 | 287 | 4.8 | 14.5 | 0.00 | 0.00 | 0.00 | 46 | 1007.5 |
| 20260505162515 | 7 | 275 | 6.4 | 14.5 | 0.00 | 0.00 | 0.00 | 47 | 1007.6 |
| 20260505162014 | 7 | 294 | 1.6 | 14.5 | 0.00 | 0.00 | 0.00 | 47 | 1007.5 |
| 20260505161542 | 7 | 340 | 6.4 | 14.5 | 0.00 | 0.00 | 0.00 | 46 | 1007.7 |
| 20260505161016 | 7 | 302 | 3.2 | 12.9 | 0.00 | 0.00 | 0.00 | 47 | 1007.6 |
| 20260505160516 | 7 | 331 | 4.8 | 12.9 | 0.00 | 0.00 | 0.00 | 47 | 1007.6 |
| 20260505153032 | 7 | 324 | 4.8 | 12.9 | 0.00 | 0.00 | 0.00 | 51 | 1007.8 |
| 20260505152516 | 7 | 320 | 4.8 | 12.9 | 0.00 | 0.00 | 0.00 | 49 | 1007.5 |
| 20260505152015 | 7 | 306 | 1.6 | 9.7 | 0.00 | 0.00 | 0.00 | 52 | 1007.6 |
| 20260505151531 | 7 | 296 | 3.2 | 9.7 | 0.00 | 0.00 | 0.00 | 50 | 1007.7 |
| 20260505151015 | 7 | 31 | 0.0 | 14.5 | 0.00 | 0.00 | 0.00 | 52 | 1007.5 |
| 20260505150515 | 6 | 296 | 8.0 | 14.5 | 0.00 | 0.00 | 0.00 | 52 | 1007.7 |
| 20260505140518 | 5 | 281 | 4.8 | 11.3 | 0.00 | 0.00 | 0.00 | 54 | 1007.2 |
| 20260505125012 | 2 | 266 | 1.6 | 4.8 | 0.00 | 0.00 | 0.00 | 63 | 1006.7 |
| 20260505124539 | 2 | 294 | 1.6 | 6.4 | 0.00 | 0.00 | 0.00 | 63 | 1006.6 |
| 20260505124014 | 1 | 282 | 1.6 | 6.4 | 0.00 | 0.00 | 0.00 | 65 | 1006.6 |
| 20260505123513 | 1 | 282 | 1.6 | 6.4 | 0.00 | 0.00 | 0.00 | 64 | 1006.6 |
| 20260505123031 | 1 | 277 | 1.6 | 4.8 | 0.00 | 0.00 | 0.00 | 66 | 1006.4 |
| 20260505122512 | 1 | 266 | 1.6 | 4.8 | 0.00 | 0.00 | 0.00 | 67 | 1006.4 |
| 20260505122017 | 1 | 288 | 0.0 | 3.2 | 0.00 | 0.00 | 0.00 | 69 | 1006.2 |
| 20260505121535 | 1 | 288 | 0.0 | 3.2 | 0.00 | 0.00 | 0.00 | 69 | 1006.2 |
| 20260505121011 | 1 | 288 | 1.6 | 3.2 | 0.00 | 0.00 | 0.00 | 70 | 1006.1 |
| 20260505120513 | 1 | 288 | 1.6 | 3.2 | 0.00 | 0.00 | 0.00 | 72 | 1006.2 |
| 20260505120043 | 1 | 288 | 1.6 | 3.2 | 0.00 | 0.00 | 0.00 | 74 | 1006.1 |
| 20260505115513 | 1 | 288 | 0.0 | 3.2 | 0.00 | 0.00 | 0.00 | 71 | 1006.0 |
| 20260505115012 | 1 | 288 | 0.0 | 3.2 | 0.00 | 0.00 | 0.00 | 71 | 1005.9 |
| 20260505114530 | 1 | 288 | 0.0 | 3.2 | 0.00 | 0.00 | 0.00 | 72 | 1006.0 |
| 20260505114011 | 1 | 288 | 0.0 | 3.2 | 0.00 | 0.00 | 0.00 | 72 | 1005.8 |
| 20260505113511 | 1 | 0 | 0.0 | 3.2 | 0.00 | 0.00 | 0.00 | 73 | 1005.9 |
| 20260505113032 | 1 | 0 | 0.0 | 1.6 | 0.00 | 0.00 | 0.00 | 73 | 1005.7 |
| 20260505112513 | 1 | 0 | 0.0 | 1.6 | 0.00 | 0.00 | 0.00 | 73 | 1005.8 |
| 20260505112013 | 1 | 0 | 0.0 | 0.0 | 0.00 | 0.00 | 0.00 | 74 | 1005.7 |
| 20260505111529 | 1 | 0 | 0.0 | 0.0 | 0.00 | 0.00 | 0.00 | 74 | 1005.5 |
| 20260505111017 | 1 | 0 | 0.0 | 0.0 | 0.00 | 0.00 | 0.00 | 74 | 1005.5 |
| 20260505110511 | 1 | 0 | 0.0 | 1.6 | 0.00 | 0.00 | 0.00 | 74 | 1005.6 |
| 20260505102012 | 1 | 0 | 0.0 | 0.0 | 0.00 | 0.00 | 0.00 | 73 | 1005.4 |
| 20260505101532 | 1 | 0 | 0.0 | 0.0 | 0.00 | 0.00 | 0.00 | 74 | 1005.3 |
| 20260505101013 | 1 | 0 | 0.0 | 0.0 | 0.00 | 0.00 | 0.00 | 73 | 1005.5 |
| 20260505100512 | 1 | 0 | 0.0 | 0.0 | 0.00 | 0.00 | 0.00 | 73 | 1005.3 |
| 20260505100030 | 2 | 0 | 0.0 | 0.0 | 0.00 | 0.00 | 0.00 | 73 | 1005.4 |
| 20260505095513 | 2 | 0 | 0.0 | 0.0 | 0.00 | 0.00 | 0.00 | 73 | 1005.5 |
| 20260505095013 | 2 | 0 | 0.0 | 1.6 | 0.00 | 0.00 | 0.00 | 73 | 1005.4 |
| 20260505094531 | 2 | 0 | 0.0 | 1.6 | 0.00 | 0.00 | 0.00 | 73 | 1005.3 |
| 20260505094015 | 2 | 0 | 0.0 | 1.6 | 0.00 | 0.00 | 0.00 | 73 | 1005.2 |
| 20260505093514 | 2 | 0 | 0.0 | 1.6 | 0.00 | 0.00 | 0.00 | 73 | 1005.2 |
| 20260505093031 | 2 | 0 | 0.0 | 1.6 | 0.00 | 0.00 | 0.00 | 72 | 1005.2 |
| 20260505092514 | 2 | 0 | 0.0 | 1.6 | 0.00 | 0.00 | 0.00 | 73 | 1005.1 |
| 20260505092013 | 2 | 0 | 0.0 | 0.0 | 0.00 | 0.00 | 0.00 | 73 | 1005.2 |
| 20260505091531 | 2 | 0 | 0.0 | 1.6 | 0.00 | 0.00 | 0.00 | 72 | 1005.0 |
| 20260505091011 | 2 | 0 | 0.0 | 3.2 | 0.00 | 0.00 | 0.00 | 72 | 1005.1 |
| 20260505090513 | 2 | 288 | 0.0 | 4.8 | 0.00 | 0.00 | 0.00 | 72 | 1004.9 |
| 20260505090033 | 2 | 288 | 1.6 | 4.8 | 0.00 | 0.00 | 0.00 | 72 | 1004.8 |
| 20260505085513 | 2 | 288 | 0.0 | 3.2 | 0.00 | 0.00 | 0.00 | 73 | 1004.8 |
| 20260505085013 | 2 | 288 | 0.0 | 3.2 | 0.00 | 0.00 | 0.00 | 73 | 1004.7 |
| 20260505084543 | 2 | 288 | 0.0 | 3.2 | 0.00 | 0.00 | 0.00 | 73 | 1004.6 |
| 20260505084011 | 2 | 288 | 0.0 | 4.8 | 0.00 | 0.00 | 0.00 | 73 | 1004.6 |
| 20260505083511 | 2 | 288 | 1.6 | 4.8 | 0.00 | 0.00 | 0.00 | 73 | 1004.8 |
| 20260505083033 | 2 | 288 | 0.0 | 3.2 | 0.00 | 0.00 | 0.00 | 71 | 1004.5 |
| 20260505082513 | 2 | 288 | 1.6 | 3.2 | 0.00 | 0.00 | 0.00 | 70 | 1004.4 |
| 20260505082013 | 2 | 288 | 1.6 | 3.2 | 0.00 | 0.00 | 0.00 | 71 | 1004.5 |
| 20260505081533 | 2 | 288 | 0.0 | 4.8 | 0.00 | 0.00 | 0.00 | 72 | 1004.6 |
| 20260505081014 | 2 | 288 | 1.6 | 4.8 | 0.00 | 0.00 | 0.00 | 72 | 1004.5 |
| 20260505080512 | 2 | 288 | 1.6 | 4.8 | 0.00 | 0.00 | 0.00 | 73 | 1004.4 |
| 20260505080033 | 2 | 288 | 1.6 | 4.8 | 0.00 | 0.00 | 0.00 | 73 | 1004.6 |
| 20260505075513 | 2 | 288 | 0.0 | 3.2 | 0.00 | 0.00 | 0.00 | 72 | 1004.3 |
| 20260505075013 | 2 | 288 | 0.0 | 3.2 | 0.00 | 0.00 | 0.00 | 71 | 1004.3 |
| 20260505074531 | 2 | 288 | 1.6 | 4.8 | 0.00 | 0.00 | 0.00 | 75 | 1004.4 |
| 20260505074013 | 2 | 288 | 1.6 | 4.8 | 0.00 | 0.00 | 0.00 | 75 | 1004.5 |
| 20260505073516 | 2 | 288 | 1.6 | 4.8 | 0.00 | 0.00 | 0.00 | 77 | 1004.5 |
| 20260505073033 | 2 | 288 | 1.6 | 3.2 | 0.00 | 0.00 | 0.00 | 76 | 1004.5 |
| 20260505072512 | 2 | 288 | 1.6 | 3.2 | 0.00 | 0.00 | 0.00 | 75 | 1004.5 |
| 20260505072019 | 2 | 288 | 1.6 | 3.2 | 0.00 | 0.00 | 0.00 | 75 | 1004.5 |
| 20260505071533 | 2 | 288 | 1.6 | 4.8 | 0.00 | 0.00 | 0.00 | 76 | 1004.6 |
| 20260505071016 | 2 | 288 | 1.6 | 4.8 | 0.00 | 0.00 | 0.00 | 77 | 1004.4 |
| 20260505070517 | 2 | 288 | 1.6 | 4.8 | 0.00 | 0.00 | 0.00 | 77 | 1004.7 |
| 20260505070042 | 2 | 0 | 0.0 | 0.0 | 0.00 | 0.00 | 0.00 | 69 | 1004.4 |
| 20260505065517 | 2 | 0 | 0.0 | 0.0 | 0.00 | 0.00 | 0.00 | 69 | 1004.6 |
| 20260505065012 | 2 | 0 | 0.0 | 0.0 | 0.00 | 0.00 | 0.00 | 68 | 1004.7 |
| 20260505064531 | 2 | 0 | 0.0 | 0.0 | 0.00 | 0.00 | 0.00 | 68 | 1004.7 |
| 20260505064017 | 2 | 0 | 0.0 | 0.0 | 0.00 | 0.00 | 0.00 | 67 | 1004.6 |
| 20260505063515 | 2 | 0 | 0.0 | 0.0 | 0.00 | 0.00 | 0.00 | 66 | 1004.5 |
| 20260505063034 | 2 | 0 | 0.0 | 0.0 | 0.00 | 0.00 | 0.00 | 67 | 1004.7 |
| 20260505062515 | 2 | 0 | 0.0 | 0.0 | 0.00 | 0.00 | 0.00 | 66 | 1004.5 |
| 20260505062015 | 2 | 0 | 0.0 | 0.0 | 0.00 | 0.00 | 0.00 | 65 | 1004.5 |
| 20260505061534 | 2 | 0 | 0.0 | 0.0 | 0.00 | 0.00 | 0.00 | 64 | 1004.5 |
| 20260505061016 | 3 | 0 | 0.0 | 0.0 | 0.00 | 0.00 | 0.00 | 64 | 1004.5 |
| 20260505060516 | 3 | 0 | 0.0 | 0.0 | 0.00 | 0.00 | 0.00 | 63 | 1004.4 |
| 20260505060036 | 3 | 0 | 0.0 | 0.0 | 0.00 | 0.00 | 0.00 | 64 | 1004.4 |
| 20260505055516 | 3 | 0 | 0.0 | 0.0 | 0.00 | 0.00 | 0.00 | 62 | 1004.4 |
| 20260505055016 | 3 | 0 | 0.0 | 0.0 | 0.00 | 0.00 | 0.00 | 62 | 1004.2 |
| 20260505054535 | 3 | 0 | 0.0 | 0.0 | 0.00 | 0.00 | 0.00 | 62 | 1004.5 |
| 20260505054019 | 3 | 0 | 0.0 | 0.0 | 0.00 | 0.00 | 0.00 | 61 | 1004.3 |
| 20260505053515 | 3 | 0 | 0.0 | 0.0 | 0.00 | 0.00 | 0.00 | 61 | 1004.3 |
| 20260505053054 | 3 | 0 | 0.0 | 0.0 | 0.00 | 0.00 | 0.00 | 59 | 1004.4 |
| 20260505052516 | 4 | 0 | 0.0 | 0.0 | 0.00 | 0.00 | 0.00 | 59 | 1004.2 |
| 20260505052016 | 4 | 0 | 0.0 | 0.0 | 0.00 | 0.00 | 0.00 | 59 | 1004.0 |
| 20260505051534 | 4 | 0 | 0.0 | 0.0 | 0.00 | 0.00 | 0.00 | 58 | 1004.0 |
| 20260505051016 | 4 | 0 | 0.0 | 0.0 | 0.00 | 0.00 | 0.00 | 59 | 1004.0 |
| 20260505050512 | 4 | 0 | 0.0 | 0.0 | 0.00 | 0.00 | 0.00 | 60 | 1004.0 |
| 20260505041541 | 4 | 288 | 0.0 | 3.2 | 0.00 | 0.00 | 0.00 | 59 | 1003.8 |
| 20260505041015 | 4 | 0 | 1.6 | 4.8 | 0.00 | 0.00 | 0.00 | 59 | 1003.6 |
| 20260505040515 | 5 | 288 | 1.6 | 4.8 | 0.00 | 0.00 | 0.00 | 59 | 1003.7 |
| 20260505040032 | 5 | 288 | 1.6 | 4.8 | 0.00 | 0.00 | 0.00 | 58 | 1003.6 |
| 20260505035515 | 5 | 288 | 1.6 | 3.2 | 0.00 | 0.00 | 0.00 | 57 | 1003.7 |
| 20260505035015 | 5 | 288 | 1.6 | 3.2 | 0.00 | 0.00 | 0.00 | 58 | 1003.9 |
| 20260505034533 | 5 | 288 | 1.6 | 4.8 | 0.00 | 0.00 | 0.00 | 55 | 1003.7 |
| 20260505034016 | 5 | 288 | 1.6 | 4.8 | 0.00 | 0.00 | 0.00 | 55 | 1003.4 |
| 20260505033521 | 5 | 288 | 1.6 | 3.2 | 0.00 | 0.00 | 0.00 | 55 | 1003.5 |
| 20260505033040 | 5 | 288 | 0.0 | 3.2 | 0.00 | 0.00 | 0.00 | 55 | 1003.5 |
| 20260505032514 | 5 | 0 | 0.0 | 3.2 | 0.00 | 0.00 | 0.00 | 55 | 1003.5 |
| 20260505032016 | 5 | 288 | 1.6 | 3.2 | 0.00 | 0.00 | 0.00 | 54 | 1003.6 |
| 20260505031534 | 6 | 0 | 0.0 | 3.2 | 0.00 | 0.00 | 0.00 | 54 | 1003.5 |
| 20260505031017 | 6 | 288 | 0.0 | 4.8 | 0.00 | 0.00 | 0.00 | 54 | 1003.5 |
| 20260505030515 | 6 | 288 | 0.0 | 4.8 | 0.00 | 0.00 | 0.00 | 54 | 1003.5 |
| 20260505030032 | 6 | 288 | 1.6 | 3.2 | 0.00 | 0.00 | 0.00 | 54 | 1003.3 |
| 20260505025518 | 6 | 288 | 0.0 | 4.8 | 0.00 | 0.00 | 0.00 | 53 | 1003.2 |
| 20260505025016 | 6 | 288 | 1.6 | 4.8 | 0.00 | 0.00 | 0.00 | 53 | 1003.2 |
| 20260505024533 | 6 | 288 | 0.0 | 4.8 | 0.00 | 0.00 | 0.00 | 52 | 1003.2 |
| 20260505024018 | 6 | 288 | 1.6 | 4.8 | 0.00 | 0.00 | 0.00 | 52 | 1003.2 |
| 20260505023515 | 6 | 288 | 1.6 | 6.4 | 0.00 | 0.00 | 0.00 | 52 | 1003.0 |
| 20260505023031 | 6 | 288 | 1.6 | 6.4 | 0.00 | 0.00 | 0.00 | 51 | 1003.0 |
| 20260505022515 | 7 | 294 | 1.6 | 4.8 | 0.00 | 0.00 | 0.00 | 51 | 1002.9 |
| 20260505022016 | 7 | 308 | 1.6 | 4.8 | 0.00 | 0.00 | 0.00 | 50 | 1002.8 |
| 20260505021532 | 7 | 302 | 1.6 | 6.4 | 0.00 | 0.00 | 0.00 | 50 | 1002.7 |
| 20260505021015 | 7 | 290 | 1.6 | 6.4 | 0.00 | 0.00 | 0.00 | 49 | 1002.7 |
| 20260505020515 | 7 | 299 | 1.6 | 8.0 | 0.00 | 0.00 | 0.00 | 49 | 1002.6 |
| 20260505020034 | 7 | 297 | 3.2 | 8.0 | 0.00 | 0.00 | 0.00 | 48 | 1002.6 |
| 20260505015515 | 7 | 313 | 1.6 | 6.4 | 0.00 | 0.00 | 0.00 | 49 | 1002.4 |
| 20260505015014 | 7 | 317 | 1.6 | 6.4 | 0.00 | 0.00 | 0.00 | 48 | 1002.3 |
| 20260505014535 | 7 | 319 | 1.6 | 9.7 | 0.00 | 0.00 | 0.00 | 48 | 1002.3 |
| 20260505014016 | 7 | 286 | 4.8 | 9.7 | 0.00 | 0.00 | 0.00 | 48 | 1002.1 |
| 20260505013514 | 7 | 303 | 3.2 | 8.0 | 0.00 | 0.00 | 0.00 | 48 | 1002.2 |
| 20260505013033 | 8 | 311 | 3.2 | 6.4 | 0.00 | 0.00 | 0.00 | 48 | 1002.1 |
| 20260505012515 | 8 | 293 | 3.2 | 8.0 | 0.00 | 0.00 | 0.00 | 48 | 1002.1 |
| 20260505012015 | 8 | 291 | 3.2 | 11.3 | 0.00 | 0.00 | 0.00 | 47 | 1002.1 |
| 20260505011553 | 8 | 294 | 4.8 | 11.3 | 0.00 | 0.00 | 0.00 | 46 | 1002.1 |
| 20260505011015 | 8 | 291 | 1.6 | 12.9 | 0.00 | 0.00 | 0.00 | 46 | 1001.9 |
| 20260505010519 | 8 | 315 | 3.2 | 12.9 | 0.00 | 0.00 | 0.00 | 46 | 1001.9 |
| 20260505010033 | 8 | 345 | 4.8 | 11.3 | 0.00 | 0.00 | 0.00 | 45 | 1001.9 |
| 20260505005518 | 8 | 336 | 3.2 | 16.1 | 0.00 | 0.00 | 0.00 | 45 | 1001.7 |
| 20260505005016 | 8 | 318 | 8.0 | 16.1 | 0.00 | 0.00 | 0.00 | 44 | 1001.5 |
| 20260505004530 | 8 | 360 | 4.8 | 16.1 | 0.00 | 0.00 | 0.00 | 44 | 1001.6 |
| 20260505004015 | 8 | 329 | 6.4 | 12.9 | 0.00 | 0.00 | 0.00 | 43 | 1001.6 |
| 20260505003518 | 8 | 331 | 3.2 | 11.3 | 0.00 | 0.00 | 0.00 | 43 | 1001.6 |
| 20260505003033 | 8 | 292 | 6.4 | 11.3 | 0.00 | 0.00 | 0.00 | 42 | 1001.7 |
| 20260505002515 | 8 | 287 | 4.8 | 11.3 | 0.00 | 0.00 | 0.00 | 43 | 1001.4 |
| 20260505002019 | 9 | 319 | 4.8 | 11.3 | 0.00 | 0.00 | 0.00 | 42 | 1001.6 |
| 20260505001532 | 9 | 296 | 4.8 | 11.3 | 0.00 | 0.00 | 0.00 | 42 | 1001.4 |
| 20260505001017 | 9 | 302 | 4.8 | 11.3 | 0.00 | 0.00 | 0.00 | 42 | 1001.6 |
| 20260505000516 | 9 | 343 | 4.8 | 14.5 | 0.00 | 0.00 | 0.00 | 45 | 1001.4 |
| 20260505000038 | 9 | 310 | 4.8 | 14.5 | 0.00 | 0.00 | 0.00 | 42 | 1001.4 |
| 20260504235515 | 9 | 325 | 3.2 | 12.9 | 0.00 | 0.00 | 0.00 | 45 | 1001.4 |
| 20260504235015 | 8 | 99 | 3.2 | 11.3 | 0.00 | 0.00 | 0.00 | 43 | 1001.6 |
| 20260504234532 | 9 | 355 | 4.8 | 16.1 | 0.00 | 0.00 | 0.00 | 42 | 1001.6 |
| 20260504234016 | 9 | 284 | 6.4 | 16.1 | 0.00 | 0.00 | 0.00 | 43 | 1001.6 |
| 20260504233515 | 9 | 306 | 4.8 | 12.9 | 0.00 | 0.00 | 0.00 | 43 | 1001.7 |
| 20260504233040 | 9 | 320 | 3.2 | 12.9 | 0.00 | 0.00 | 0.00 | 44 | 1001.7 |
| 20260504232515 | 9 | 289 | 1.6 | 11.3 | 0.00 | 0.00 | 0.00 | 46 | 1001.7 |
| 20260504232015 | 8 | 313 | 3.2 | 11.3 | 0.00 | 0.00 | 0.00 | 46 | 1001.8 |
| 20260504231533 | 8 | 281 | 4.8 | 12.9 | 0.00 | 0.00 | 0.00 | 46 | 1001.8 |
| 20260504231014 | 8 | 311 | 6.4 | 17.7 | 0.00 | 0.00 | 0.00 | 46 | 1001.7 |
| 20260504230515 | 8 | 329 | 3.2 | 17.7 | 0.00 | 0.00 | 0.00 | 47 | 1001.6 |
| 20260504230033 | 9 | 290 | 6.4 | 16.1 | 0.00 | 0.00 | 0.00 | 45 | 1001.5 |
| 20260504225515 | 9 | 293 | 6.4 | 16.1 | 0.00 | 0.00 | 0.00 | 45 | 1001.5 |
| 20260504225013 | 9 | 48 | 6.4 | 19.3 | 0.00 | 0.00 | 0.00 | 44 | 1001.3 |
| 20260504224538 | 10 | 288 | 9.7 | 19.3 | 0.00 | 0.00 | 0.00 | 44 | 1001.4 |
| 20260504224015 | 10 | 288 | 6.4 | 19.3 | 0.00 | 0.00 | 0.00 | 45 | 1001.3 |
| 20260504223516 | 10 | 288 | 6.4 | 20.9 | 0.00 | 0.00 | 0.00 | 45 | 1001.2 |
| 20260504223030 | 10 | 321 | 6.4 | 20.9 | 0.00 | 0.00 | 0.00 | 45 | 1001.1 |
| 20260504222514 | 10 | 329 | 8.0 | 20.9 | 0.00 | 0.00 | 0.00 | 45 | 1001.0 |
| 20260504222021 | 10 | 327 | 6.4 | 16.1 | 0.00 | 0.00 | 0.00 | 45 | 1001.0 |
| 20260504221534 | 10 | 296 | 4.8 | 16.1 | 0.00 | 0.00 | 0.00 | 46 | 1000.8 |
| 20260504221017 | 10 | 325 | 4.8 | 14.5 | 0.00 | 0.00 | 0.00 | 46 | 1000.6 |
| 20260504220514 | 10 | 279 | 6.4 | 14.5 | 0.00 | 0.00 | 0.00 | 44 | 1000.7 |
| 20260504220034 | 10 | 294 | 6.4 | 16.1 | 0.00 | 0.00 | 0.00 | 43 | 1000.6 |
| 20260504215515 | 10 | 324 | 8.0 | 17.7 | 0.00 | 0.00 | 0.00 | 43 | 1000.5 |
| 20260504215015 | 10 | 293 | 6.4 | 17.7 | 0.00 | 0.00 | 0.00 | 44 | 1000.6 |
| 20260504214534 | 10 | 305 | 6.4 | 16.1 | 0.00 | 0.00 | 0.00 | 44 | 1000.5 |
| 20260504214015 | 10 | 302 | 4.8 | 14.5 | 0.00 | 0.00 | 0.00 | 44 | 1000.4 |
| 20260504213514 | 10 | 269 | 6.4 | 17.7 | 0.00 | 0.00 | 0.00 | 44 | 1000.3 |
| 20260504213034 | 10 | 352 | 6.4 | 17.7 | 0.00 | 0.00 | 0.00 | 46 | 1000.5 |
| 20260504212521 | 10 | 350 | 8.0 | 17.7 | 0.00 | 0.00 | 0.00 | 45 | 1000.3 |
| 20260504212016 | 10 | 300 | 8.0 | 20.9 | 0.00 | 0.00 | 0.00 | 45 | 1000.1 |
| 20260504211532 | 10 | 321 | 8.0 | 20.9 | 0.00 | 0.00 | 0.00 | 45 | 1000.2 |
| 20260504211015 | 10 | 282 | 6.4 | 16.1 | 0.00 | 0.00 | 0.00 | 46 | 1000.3 |
| 20260504210515 | 10 | 294 | 8.0 | 17.7 | 0.00 | 0.00 | 0.00 | 45 | 1000.2 |
| 20260504210032 | 11 | 271 | 8.0 | 19.3 | 0.00 | 0.00 | 0.00 | 44 | 1000.1 |
| 20260504205515 | 11 | 294 | 8.0 | 19.3 | 0.00 | 0.00 | 0.00 | 43 | 1000.0 |
| 20260504205014 | 11 | 290 | 9.7 | 19.3 | 0.00 | 0.00 | 0.00 | 43 | 1000.0 |
| 20260504204531 | 11 | 279 | 6.4 | 17.7 | 0.00 | 0.00 | 0.00 | 44 | 999.8 |
| 20260504204015 | 11 | 280 | 6.4 | 14.5 | 0.00 | 0.00 | 0.00 | 42 | 999.9 |
| 20260504203514 | 12 | 267 | 6.4 | 16.1 | 0.00 | 0.00 | 0.00 | 42 | 1000.0 |
| 20260504203031 | 11 | 342 | 6.4 | 16.1 | 0.00 | 0.00 | 0.00 | 44 | 999.6 |
| 20260504202516 | 12 | 260 | 6.4 | 19.3 | 0.00 | 0.00 | 0.00 | 43 | 999.8 |
| 20260504202013 | 12 | 301 | 8.0 | 19.3 | 0.00 | 0.00 | 0.00 | 42 | 999.8 |
| 20260504201532 | 12 | 313 | 4.8 | 19.3 | 0.00 | 0.00 | 0.00 | 42 | 999.7 |
| 20260504201015 | 12 | 290 | 9.7 | 20.9 | 0.00 | 0.00 | 0.00 | 42 | 999.7 |
| 20260504200515 | 12 | 334 | 9.7 | 20.9 | 0.00 | 0.00 | 0.00 | 42 | 999.7 |
| 20260504200032 | 12 | 309 | 4.8 | 25.7 | 0.00 | 0.00 | 0.00 | 44 | 999.5 |